TimeCDT,TemperatureF,Dew PointF,Humidity,Sea Level PressureIn,VisibilityMPH,Wind Direction,Wind SpeedMPH,Gust SpeedMPH,PrecipitationIn,Events,Conditions,WindDirDegrees,DateUTC
12:15 AM,42.8,39.2,87,29.67,10.0,West,3.5,-,N/A,,Overcast,280,2012-10-20 05:15:00
12:35 AM,42.8,37.4,81,29.67,10.0,WNW,4.6,-,N/A,,Overcast,300,2012-10-20 05:35:00
12:55 AM,42.8,37.4,81,29.67,10.0,NW,3.5,-,N/A,,Overcast,310,2012-10-20 05:55:00
1:15 AM,41.0,37.4,87,29.68,10.0,WNW,3.5,-,N/A,,Mostly Cloudy,300,2012-10-20 06:15:00
1:35 AM,41.0,37.4,87,29.68,10.0,WNW,3.5,-,N/A,,Scattered Clouds,290,2012-10-20 06:35:00
1:55 AM,39.2,37.4,93,29.68,10.0,WNW,3.5,-,N/A,,Clear,300,2012-10-20 06:55:00
2:15 AM,37.4,35.6,93,29.69,10.0,WNW,4.6,-,N/A,,Clear,290,2012-10-20 07:15:00
2:35 AM,37.4,35.6,93,29.69,10.0,WNW,3.5,-,N/A,,Clear,290,2012-10-20 07:35:00
2:55 AM,37.4,35.6,93,29.69,10.0,WNW,4.6,-,N/A,,Clear,300,2012-10-20 07:55:00
3:15 AM,37.4,35.6,93,29.69,10.0,WNW,4.6,-,N/A,,Clear,290,2012-10-20 08:15:00
3:35 AM,37.4,35.6,93,29.69,10.0,WNW,5.8,-,N/A,,Clear,290,2012-10-20 08:35:00
3:55 AM,37.4,35.6,93,29.70,10.0,WNW,3.5,-,N/A,,Clear,290,2012-10-20 08:55:00
4:15 AM,35.6,35.6,100,29.70,10.0,West,3.5,-,N/A,,Clear,280,2012-10-20 09:15:00
4:35 AM,35.6,35.6,100,29.71,10.0,West,3.5,-,N/A,,Clear,280,2012-10-20 09:35:00
4:55 AM,35.6,33.8,93,29.72,10.0,WNW,4.6,-,N/A,,Clear,300,2012-10-20 09:55:00
5:15 AM,35.6,33.8,93,29.72,10.0,WNW,4.6,-,N/A,,Clear,290,2012-10-20 10:15:00
5:35 AM,35.6,33.8,93,29.73,10.0,WNW,4.6,-,N/A,,Clear,290,2012-10-20 10:35:00
5:55 AM,35.6,33.8,93,29.73,10.0,WNW,3.5,-,N/A,,Clear,290,2012-10-20 10:55:00
6:15 AM,33.8,33.8,100,29.74,10.0,West,4.6,-,N/A,,Clear,280,2012-10-20 11:15:00
6:35 AM,35.6,33.8,93,29.75,10.0,West,3.5,-,N/A,,Clear,280,2012-10-20 11:35:00
6:55 AM,35.6,33.8,93,29.75,10.0,Calm,Calm,-,N/A,,Clear,0,2012-10-20 11:55:00
7:15 AM,35.6,33.8,93,29.75,10.0,West,3.5,-,N/A,,Clear,260,2012-10-20 12:15:00
7:35 AM,33.8,33.8,100,29.76,10.0,West,5.8,-,N/A,,Clear,270,2012-10-20 12:35:00
7:55 AM,35.6,33.8,93,29.77,10.0,WNW,3.5,-,N/A,,Clear,300,2012-10-20 12:55:00
8:15 AM,35.6,35.6,100,29.77,10.0,West,5.8,-,N/A,,Clear,280,2012-10-20 13:15:00
8:35 AM,37.4,35.6,93,29.77,10.0,WNW,4.6,-,N/A,,Clear,290,2012-10-20 13:35:00
8:55 AM,41.0,35.6,81,29.78,10.0,West,3.5,-,N/A,,Clear,270,2012-10-20 13:55:00
9:15 AM,41.0,37.4,87,29.78,10.0,WNW,4.6,-,N/A,,Clear,290,2012-10-20 14:15:00
9:35 AM,42.8,37.4,81,29.78,10.0,NNW,4.6,-,N/A,,Clear,330,2012-10-20 14:35:00
9:55 AM,44.6,37.4,76,29.79,10.0,WNW,6.9,-,N/A,,Clear,300,2012-10-20 14:55:00
10:15 AM,44.6,37.4,76,29.80,10.0,WNW,5.8,-,N/A,,Clear,300,2012-10-20 15:15:00
10:35 AM,46.4,39.2,76,29.80,10.0,West,5.8,-,N/A,,Clear,260,2012-10-20 15:35:00
10:55 AM,48.2,39.2,71,29.80,10.0,West,5.8,-,N/A,,Clear,280,2012-10-20 15:55:00
11:15 AM,48.2,37.4,66,29.80,10.0,NNW,3.5,-,N/A,,Clear,340,2012-10-20 16:15:00
11:35 AM,50.0,37.4,62,29.80,10.0,NW,8.1,-,N/A,,Scattered Clouds,310,2012-10-20 16:35:00
11:55 AM,50.0,37.4,62,29.80,10.0,WNW,5.8,-,N/A,,Scattered Clouds,300,2012-10-20 16:55:00
12:15 PM,51.8,35.6,54,29.81,10.0,NW,8.1,-,N/A,,Clear,310,2012-10-20 17:15:00
12:35 PM,53.6,37.4,54,29.80,10.0,West,10.4,-,N/A,,Scattered Clouds,280,2012-10-20 17:35:00
12:55 PM,51.8,35.6,54,29.80,10.0,NW,6.9,-,N/A,,Scattered Clouds,310,2012-10-20 17:55:00
1:15 PM,53.6,37.4,54,29.79,10.0,West,6.9,-,N/A,,Scattered Clouds,260,2012-10-20 18:15:00
1:35 PM,53.6,35.6,51,29.78,10.0,WSW,4.6,-,N/A,,Scattered Clouds,240,2012-10-20 18:35:00
1:55 PM,53.6,35.6,51,29.78,10.0,SW,8.1,-,N/A,,Clear,220,2012-10-20 18:55:00
2:35 PM,55.4,35.6,47,29.79,10.0,West,10.4,-,N/A,,Mostly Cloudy,260,2012-10-20 19:35:00
2:55 PM,53.6,35.6,51,29.79,10.0,WNW,9.2,-,N/A,,Scattered Clouds,290,2012-10-20 19:55:00
3:35 PM,53.6,35.6,51,29.80,10.0,West,5.8,-,N/A,,Scattered Clouds,270,2012-10-20 20:35:00
3:55 PM,53.6,33.8,47,29.80,10.0,West,3.5,-,N/A,,Scattered Clouds,280,2012-10-20 20:55:00
4:15 PM,55.4,33.8,44,29.80,10.0,NNW,6.9,-,N/A,,Clear,330,2012-10-20 21:15:00
4:35 PM,53.6,33.8,47,29.80,10.0,Calm,Calm,-,N/A,,Scattered Clouds,0,2012-10-20 21:35:00
4:55 PM,55.4,33.8,44,29.81,10.0,Calm,Calm,-,N/A,,Scattered Clouds,0,2012-10-20 21:55:00
5:15 PM,53.6,33.8,47,29.80,10.0,Calm,Calm,-,N/A,,Clear,0,2012-10-20 22:15:00
5:35 PM,53.6,33.8,47,29.81,10.0,Calm,Calm,-,N/A,,Clear,0,2012-10-20 22:35:00
5:55 PM,51.8,33.8,50,29.81,10.0,Calm,Calm,-,N/A,,Clear,0,2012-10-20 22:55:00
6:15 PM,46.4,37.4,71,29.82,10.0,Calm,Calm,-,N/A,,Clear,0,2012-10-20 23:15:00
6:35 PM,44.6,35.6,71,29.82,10.0,Calm,Calm,-,N/A,,Mostly Cloudy,0,2012-10-20 23:35:00
6:55 PM,44.6,37.4,76,29.82,10.0,Calm,Calm,-,N/A,,Mostly Cloudy,0,2012-10-20 23:55:00
7:15 PM,44.6,35.6,71,29.83,10.0,Calm,Calm,-,N/A,,Scattered Clouds,0,2012-10-21 00:15:00
7:35 PM,42.8,35.6,76,29.84,10.0,Calm,Calm,-,N/A,,Clear,0,2012-10-21 00:35:00
7:55 PM,41.0,33.8,76,29.84,10.0,Calm,Calm,-,N/A,,Clear,0,2012-10-21 00:55:00
8:15 PM,41.0,35.6,81,29.84,10.0,Calm,Calm,-,N/A,,Clear,0,2012-10-21 01:15:00
8:35 PM,41.0,35.6,81,29.84,10.0,SSE,4.6,-,N/A,,Clear,160,2012-10-21 01:35:00
8:55 PM,39.2,33.8,81,29.85,10.0,SSW,4.6,-,N/A,,Clear,200,2012-10-21 01:55:00
9:15 PM,39.2,35.6,87,29.86,10.0,South,3.5,-,N/A,,Clear,180,2012-10-21 02:15:00
9:35 PM,39.2,35.6,87,29.86,10.0,SW,3.5,-,N/A,,Clear,220,2012-10-21 02:35:00
9:55 PM,39.2,35.6,87,29.86,10.0,Calm,Calm,-,N/A,,Clear,0,2012-10-21 02:55:00
10:15 PM,41.0,35.6,81,29.87,10.0,Calm,Calm,-,N/A,,Clear,0,2012-10-21 03:15:00
10:35 PM,41.0,35.6,81,29.88,10.0,Calm,Calm,-,N/A,,Clear,0,2012-10-21 03:35:00
10:55 PM,41.0,35.6,81,29.89,10.0,Calm,Calm,-,N/A,,Clear,0,2012-10-21 03:55:00
11:15 PM,42.8,35.6,76,29.90,10.0,Calm,Calm,-,N/A,,Clear,0,2012-10-21 04:15:00
11:35 PM,42.8,33.8,70,29.90,10.0,Calm,Calm,-,N/A,,Clear,0,2012-10-21 04:35:00
11:55 PM,41.0,33.8,76,29.90,10.0,Calm,Calm,-,N/A,,Clear,0,2012-10-21 04:55:00